Weather History for PAED - November, 2012

Change the Weather History Date:

Saturday, November 3, 2012

  Actual Average Record
Temperature  
Mean Temperature 22 °F -  
Max Temperature 28 °F 31 °F 51 °F (1962)
Min Temperature 16 °F 19 °F -8 °F (1975)
Degree Days  
Heating Degree Days 43    
Moisture  
Dew Point 15 °F    
Average Humidity 67    
Maximum Humidity 79    
Minimum Humidity 56    
Precipitation  
Precipitation 0.00 in - - ()
Sea Level Pressure  
Sea Level Pressure 29.36 in    
Wind  
Wind Speed 6 mph (NNE)    
Max Wind Speed 10 mph    
Max Gust Speed -    
Visibility 10 miles    
Events      
Averages and records for this station are not official NWS values.
T = Trace of Precipitation, MM = Missing Value Source: NWS Daily Summary

Daily Weather History Graph

Daily Weather History Graph

Search for Another Location

Airport or City:

Trip Planner

Search our weather history database for the weather conditions in past years. The results will help you decide how hot, cold, wet, or windy it might be!

Date:

Astronomy

Nov. 03, 2012 Rise Set
Actual Time 9:34 AM AKDT 5:49 PM AKDT
Civil Twilight 8:46 AM AKDT 6:38 PM AKDT
Nautical Twilight 7:54 AM AKDT 7:29 PM AKDT
Astronomical Twilight 7:04 AM AKDT 8:19 PM AKDT
Moon 9:10 PM AKDT (11/3) 2:17 PM AKDT (11/3)
Length of Visible Light 9h 51m
Length of Day
8h 15m
Waning Gibbous, 79% of the Moon is Illuminated
Nov 3
Waning Gibbous
Nov 6
Last Quarter
Nov 13
New
Nov 20
First Quarter
Nov 28
Full

Hourly Weather History & Observations

Time (AKDT) Temp. Windchill Dew Point Humidity Pressure Visibility Wind Dir Wind Speed Gust Speed Precip Events Conditions
12:55 AM 27.3 °F 20.9 °F 13.6 °F 56% 29.36 in 10.0 mi Variable 5.8 mph - N/A   Clear
1:55 AM 24.8 °F 16.9 °F 13.6 °F 63% 29.36 in 10.0 mi NNE 6.9 mph - N/A   Clear
2:55 AM 24.8 °F 16.1 °F 14.2 °F 64% 29.36 in 10.0 mi North 8.1 mph - N/A   Clear
3:55 AM 23.9 °F 16.8 °F 16.7 °F 74% 29.36 in 10.0 mi NE 5.8 mph - N/A   Partly Cloudy
4:55 AM 25.3 °F 16.0 °F 15.3 °F 66% 29.35 in 10.0 mi NE 9.2 mph - N/A   Clear
5:55 AM 24.4 °F 14.9 °F 15.1 °F 68% 29.35 in 10.0 mi NNE 9.2 mph - N/A   Clear
6:55 AM 24.8 °F 16.9 °F 16.7 °F 71% 29.35 in 10.0 mi Variable 6.9 mph - N/A   Scattered Clouds
7:55 AM 24.4 °F 17.5 °F 16.0 °F 70% 29.34 in 10.0 mi NNE 5.8 mph - N/A   Clear
8:55 AM 24.6 °F 16.7 °F 15.6 °F 69% 29.34 in 10.0 mi NE 6.9 mph - N/A   Overcast
9:55 AM 25.5 °F 15.5 °F 15.3 °F 65% 29.35 in 10.0 mi NNE 10.4 mph - N/A   Mostly Cloudy
10:55 AM 26.2 °F 18.6 °F 14.2 °F 60% 29.36 in 10.0 mi NE 6.9 mph - N/A   Overcast
11:55 AM 26.8 °F 19.3 °F 15.4 °F 62% 29.35 in 10.0 mi Variable 6.9 mph - N/A   Mostly Cloudy
12:55 PM 27.1 °F 20.7 °F 15.6 °F 62% 29.36 in 10.0 mi NNE 5.8 mph - N/A   Overcast
1:55 PM 27.9 °F 22.6 °F 15.8 °F 61% 29.37 in 10.0 mi NE 4.6 mph - N/A   Partly Cloudy
2:55 PM 28.2 °F 21.0 °F 15.8 °F 60% 29.37 in 10.0 mi NNE 6.9 mph - N/A   Mostly Cloudy
3:55 PM 28.2 °F 22.0 °F 15.1 °F 58% 29.36 in 10.0 mi NE 5.8 mph - N/A   Partly Cloudy
4:55 PM 26.4 °F - 14.9 °F 62% 29.35 in 10.0 mi Calm Calm - N/A   Clear
5:55 PM 23.7 °F 19.3 °F 15.1 °F 70% 29.35 in 10.0 mi NE 3.5 mph - N/A   Clear
6:55 PM 20.8 °F - 14.4 °F 76% 29.35 in 10.0 mi Calm Calm - N/A   Partly Cloudy
7:55 PM 22.6 °F - 14.5 °F 71% 29.36 in 10.0 mi Calm Calm - N/A   Partly Cloudy
8:55 PM 21.9 °F 17.2 °F 14.2 °F 72% 29.36 in 10.0 mi NNE 3.5 mph - N/A   Clear
9:55 PM 16.7 °F - 11.1 °F 79% 29.37 in 10.0 mi Calm Calm - N/A   Clear
10:55 PM 19.2 °F - 13.5 °F 78% 29.37 in 10.0 mi Calm Calm - N/A   Scattered Clouds
11:55 PM 25.2 °F 19.5 °F 18.3 °F 75% 29.37 in 10.0 mi NNE 4.6 mph - N/A   Partly Cloudy